EHI
0 0 0 0 0 0 0 0 0 0 0 0 0 0 0 0 0 0 0 0 0 0 0 0 0 1 2 4 5 5 4 3 2 1 2 3 1 0 0 0 0 0 0 0
0 0 0 0 0 0 0 0 0 0 0 0 0 0 0 0 0 0 0 0 0 0 0 1 1 1 2 4 5 5 4 2 1 1 2 3 2 1 0 0 0 0 0 0
0 0 0 0 0 0 0 0 0 0 0 0 0 0 0 0 0 0 0 0 0 0 0 1 2 2 2 4 5 5 3 2 1 2 3 4 3 1 0 0 0 0 0 0
0 0 0 0 0 0 0 0 0 0 0 0 0 0 0 0 0 0 0 0 0 0 0 1 1 1 2 4 4 4 3 2 2 3 4 4 4 2 1 0 0 0 0 0
0 0 0 0 0 0 0 0 0 0 0 0 0 0 0 0 0 0 0 0 0 0 0 0 0 0 2 2 2 1 1 1 2 3 5 5 4 3 2 1 0 0 0 0
0 0 0 0 0 0 0 0 0 0 0 0 0 0 0 0 0 0 0 0 0 0 0 0 0 0 1 1 0 0 0 0 1 3 5 5 4 3 3 2 1 0 0 0
0 0 0 0 0 0 0 0 0 0 0 0 0 0 0 0 0 0 0 0 0 0 0 0 0 0 0 0 0 0 0 0 1 2 4 4 3 3 3 3 2 1 0 0
0 0 0 0 0 0 0 0 0 0 0 0 0 0 0 0 0 0 0 0 0 0 0 0 0 0 0 0 0 0 0 0 0 1 3 3 3 3 3 3 2 1 0 0
0 0 0 0 0 0 0 0 0 0 0 0 0 0 0 0 0 0 0 0 0 0 0 0 0 0 0 0 0 0 0 0 0 1 2 3 3 2 2 2 1 0 0 0
0 0 0 0 0 0 0 0 0 0 0 0 0 0 0 0 0 0 0 0 0 0 0 0 0 0 0 0 0 0 0 0 0 1 2 2 1 1 1 1 0 0 0 0
0 0 0 0 0 0 0 0 0 0 0 0 0 0 0 0 0 0 0 0 0 0 0 0 0 0 0 0 0 0 0 0 0 0 1 1 0 0 0 0 0 0 0 0
0 0 0 0 0 0 0 0 0 0 0 0 0 0 0 0 0 0 0 0 0 0 0 0 0 0 0 0 0 0 0 0 0 0 0 0 0 0 0 0 0 0 0 0
0 0 0 0 0 0 0 0 0 0 0 0 0 0 0 0 0 0 0 0 0 0 0 0 0 0 0 0 0 0 0 0 0 0 0 0 0 0 0 0 0 0 0 0
0 0 0 0 0 0 0 0 0 0 0 0 0 0 0 0 0 0 0 0 0 0 0 0 0 0 0 0 0 0 0 0 0 0 0 0 0 0 0 0 0 0 0 0
0 0 0 0 0 0 0 0 0 0 0 0 0 0 0 0 0 0 0 0 0 0 0 0 0 0 0 0 0 0 0 0 0 0 0 0 0 0 0 0 0 0 0 0
0 0 0 0 0 0 0 0 0 0 0 0 0 0 0 0 0 0 0 0 0 0 0 0 0 0 0 0 0 0 0 0 0 0 0 0 0 0 0 0 0 0 0 0
0 0 0 0 0 0 0 0 0 0 0 0 0 0 0 0 0 0 0 0 0 0 0 0 0 0 0 0 0 0 0 0 0 0 0 0 0 0 0 0 0 0 0 0
0 0 0 0 0 0 0 0 0 0 0 0 0 0 0 0 0 0 0 0 0 0 0 0 0 0 0 0 0 0 0 0 0 0 0 0 0 0 0 0 0 0 0 0
0 0 0 0 0 0 0 0 0 0 0 0 0 0 0 0 0 0 0 0 0 0 0 0 0 0 0 0 0 0 0 0 0 0 0 0 0 0 0 0 0 0 0 0
0 0 0 0 0 0 0 0 0 0 0 0 0 0 0 0 0 0 0 0 0 0 0 0 0 0 0 0 0 0 0 0 0 0 0 0 0 0 0 0 0 0 0 0
0 0 0 0 0 0 0 0 0 0 0 0 0 0 0 0 0 0 0 0 0 0 0 0 0 0 0 0 0 0 0 0 0 0 0 0 0 0 0 0 0 0 0 0
0 0 0 0 0 0 0 0 0 0 0 0 0 0 0 0 0 0 0 0 0 0 0 0 0 0 0 0 0 0 0 0 0 0 0 0 0 0 0 0 0 0 0 0
0 0 0 0 0 0 0 0 0 0 0 0 0 0 0 0 0 0 0 0 0 0 0 0 0 0 0 0 0 0 0 0 0 0 0 0 0 0 0 0 0 0 0 0
0 0 0 0 0 0 0 0 0 0 0 0 0 0 0 0 0 0 0 0 0 0 0 0 0 0 0 0 0 0 0 0 0 0 0 0 0 0 0 0 0 0 0 0
0 0 0 0 0 0 0 0 0 0 0 0 0 0 0 0 0 0 0 0 0 0 0 0 0 0 0 0 0 0 0 0 0 0 0 0 0 0 0 0 0 0 0 0
0 0 0 0 0 0 0 0 0 0 0 0 0 0 0 0 0 0 0 0 0 0 0 0 0 0 0 0 0 0 0 0 0 0 0 0 0 0 0 0 0 0 0 0
0 0 0 0 0 0 0 0 0 0 0 0 0 0 0 0 0 0 0 0 0 0 0 0 0 0 0 0 0 0 0 0 0 0 0 0 0 0 0 0 0 0 0 0
Wind_Speed
8 6 6 9 10 10 13 13 12 11 11 10 7 6 5 3 3 2 2 2 2 3 3 3 4 4 4 4 4 4 5 5 5 5 5 5 6 6 6 6 6 6 6 6
8 7 8 10 11 12 13 13 13 13 12 8 6 4 4 4 3 4 3 3 3 3 3 4 4 4 4 4 4 4 5 4 4 4 4 5 5 5 5 6 6 6 6 6
7 5 7 11 10 11 11 11 11 12 9 5 6 5 5 4 4 4 4 3 3 3 3 3 3 4 4 4 4 4 4 4 4 4 4 5 5 5 5 6 6 6 6 6
6 6 11 3 1 6 9 9 10 9 6 6 5 4 4 4 4 4 3 3 3 3 3 3 3 3 4 4 4 4 4 4 3 3 4 4 4 5 5 5 5 6 6 6
6 8 10 5 3 4 6 7 7 7 5 4 3 3 4 3 3 3 3 3 3 3 3 3 3 3 4 4 4 4 4 4 3 3 3 3 4 4 4 4 4 5 5 6
7 8 8 2 2 2 5 7 3 4 4 4 5 5 2 0 1 2 2 2 2 2 2 3 3 3 5 5 5 4 4 4 3 3 3 3 3 3 3 4 4 4 4 4
11 10 8 1 2 5 7 2 1 2 3 5 5 3 2 1 1 1 2 2 2 2 2 2 3 4 5 5 5 4 3 3 3 3 3 3 3 3 3 3 3 3 3 4
8 10 7 4 5 6 3 2 1 1 2 3 2 2 1 1 2 2 2 2 2 2 2 2 3 4 4 4 3 3 3 3 3 3 3 3 3 2 3 3 3 3 3 3
6 5 2 2 4 2 3 3 2 2 2 2 3 3 2 2 2 2 2 2 2 2 2 2 3 4 4 3 3 3 3 4 3 3 3 3 3 3 2 2 2 2 2 2
7 6 4 4 5 4 4 3 3 3 3 3 4 3 3 3 3 2 2 2 2 2 2 2 2 3 3 2 3 4 3 3 3 3 3 2 2 2 2 2 2 2 2 2
9 7 5 5 5 4 3 4 4 3 3 4 4 4 4 3 3 2 2 2 2 2 2 2 2 2 2 2 3 3 3 3 3 3 3 3 2 1 1 1 1 2 2 2
7 6 6 6 4 4 5 5 4 4 4 4 4 5 4 4 3 2 2 2 2 2 3 2 2 2 2 2 3 3 3 3 2 2 3 3 2 2 2 1 1 1 1 1
8 7 7 6 6 5 6 5 5 5 4 4 3 4 4 3 3 3 3 3 3 3 3 2 2 2 2 2 3 3 3 2 2 2 3 3 2 2 2 2 3 1 0 0
7 6 7 7 7 7 6 6 5 4 4 3 3 3 3 3 3 3 3 2 2 3 3 2 2 2 2 2 3 2 2 2 2 2 2 2 2 2 2 1 1 1 2 2
7 8 7 7 7 6 6 5 5 4 4 3 3 3 4 4 4 3 2 2 3 3 3 2 2 2 2 3 3 3 2 2 2 2 2 2 2 2 2 2 1 1 1 2
6 6 6 6 6 6 6 6 5 5 4 4 3 3 3 3 3 3 3 3 3 3 3 3 2 2 2 2 2 2 2 2 1 2 2 2 2 2 2 2 2 1 1 0
6 6 6 7 7 7 7 6 5 5 4 4 4 3 3 3 3 3 3 3 3 3 2 3 2 2 2 2 2 2 2 3 3 2 2 2 2 2 2 2 2 1 1 1
7 7 7 7 6 6 6 5 5 5 5 4 3 4 4 5 4 3 3 3 3 2 2 2 2 2 2 2 2 2 2 2 2 2 2 1 1 1 1 1 1 1 1 1
6 5 5 5 5 5 5 5 5 4 3 3 4 4 4 4 4 3 4 4 3 3 2 2 2 2 2 2 1 2 2 2 2 2 1 2 1 1 1 1 1 1 1 1
4 4 4 3 3 4 4 4 3 3 3 4 4 4 4 3 3 3 4 3 3 2 2 2 3 2 2 3 3 2 2 2 2 2 1 1 1 1 1 1 1 1 1 1
4 3 3 3 3 2 3 3 3 3 3 4 4 4 3 3 3 3 3 3 2 2 2 3 3 2 2 3 3 2 2 2 2 2 2 1 1 1 1 1 1 1 1 1
3 2 2 2 2 2 1 2 2 2 3 3 3 3 3 3 3 3 3 2 2 3 2 2 2 3 3 4 2 2 2 2 2 2 1 1 1 1 1 1 1 1 1 1
2 2 2 2 2 1 1 1 1 2 2 3 3 3 3 2 2 3 3 2 3 4 3 2 3 5 5 3 2 2 2 2 2 1 1 1 1 1 1 1 1 1 1 1
2 2 2 2 1 2 2 1 1 1 2 2 2 2 2 2 2 2 2 3 4 4 3 3 5 6 5 2 2 2 2 2 2 1 1 1 1 1 1 1 1 1 2 2
2 2 2 3 3 2 2 2 2 2 2 2 2 2 2 2 2 1 2 3 4 4 3 4 6 6 4 2 2 2 2 1 1 1 2 2 1 1 1 1 2 2 2 2
3 2 2 3 2 2 2 2 2 2 2 2 1 1 1 1 2 2 2 3 4 4 3 3 4 4 3 2 2 2 2 2 2 2 2 1 2 2 2 2 2 2 2 2
3 2 2 2 1 2 2 2 2 2 2 2 2 1 1 2 2 2 3 3 3 3 2 2 2 2 2 2 2 2 2 1 2 1 1 2 2 2 2 2 2 2 2 2
Wind_Direction
261 269 255 249 242 230 234 245 257 261 262 270 270 269 269 264 263 255 236 216 208 208 200 194 194 194 194 195 195 191 192 201 210 214 213 216 218 221 222 224 227 228 232 234
248 245 248 256 249 240 240 245 252 259 264 272 274 265 256 252 248 250 246 237 228 224 216 212 204 200 198 201 201 197 197 204 206 212 212 216 218 218 219 223 226 230 234 235
252 245 259 253 242 234 233 234 243 253 261 252 249 246 251 256 251 250 250 251 242 238 230 224 221 208 203 204 203 205 204 204 204 208 210 215 215 214 220 223 225 230 234 237
259 247 248 264 170 236 242 247 246 253 255 252 260 262 266 264 259 260 262 261 257 250 243 233 224 220 208 198 201 205 207 205 208 211 212 214 212 216 224 227 227 234 236 239
241 251 263 251 209 212 235 252 243 241 237 236 248 244 241 248 254 266 268 265 263 255 239 224 218 216 208 201 203 207 210 210 210 214 215 217 218 219 225 230 232 234 236 239
233 247 253 245 148 210 246 249 222 237 233 220 214 240 244 37 286 270 273 274 267 251 228 214 207 207 207 205 208 212 213 212 210 210 213 218 226 227 225 226 231 235 237 240
237 245 257 270 147 193 229 280 93 246 236 219 232 291 6 341 297 283 284 285 268 239 222 211 200 205 210 210 215 215 207 204 205 203 212 215 222 226 226 224 224 230 235 241
228 237 243 140 172 215 289 6 318 267 242 234 263 309 287 272 272 272 275 272 248 225 215 211 207 212 214 215 213 202 197 200 202 203 202 202 206 220 225 220 224 227 233 239
235 251 343 197 234 283 314 302 299 287 262 241 256 266 257 257 255 255 256 255 245 227 216 220 220 225 222 210 196 197 200 202 205 206 204 208 204 204 218 219 223 230 236 242
254 256 265 261 259 267 285 300 301 292 270 252 257 255 250 251 248 244 240 237 236 224 216 220 229 234 231 198 195 198 201 205 208 206 199 196 199 201 209 218 224 226 234 247
254 262 264 259 257 262 277 284 281 280 264 254 256 252 245 246 248 249 234 220 223 225 222 224 224 227 221 199 198 196 195 199 206 206 199 189 172 168 231 208 250 249 238 234
254 263 267 275 275 265 266 267 267 267 266 262 254 250 246 244 243 233 223 210 210 216 219 221 216 215 209 205 201 198 195 196 201 201 190 183 177 154 91 53 75 354 303 284
268 277 275 279 278 270 267 266 267 266 263 261 253 246 242 239 225 212 215 212 212 209 213 211 203 205 204 202 201 201 203 201 199 198 186 184 183 184 165 136 129 123 75 265
254 258 261 263 266 266 263 261 264 259 253 245 239 236 235 228 217 212 213 213 211 204 202 196 196 204 199 194 196 199 198 199 203 193 192 189 189 193 194 192 175 154 131 119
258 258 261 267 263 259 254 249 248 244 236 230 222 218 217 221 220 217 208 200 195 197 201 197 200 201 189 191 190 190 191 191 184 187 188 184 186 194 195 198 194 182 158 134
260 255 254 253 254 253 247 242 243 245 241 233 225 220 214 218 219 206 195 191 195 201 202 204 207 205 189 185 187 188 174 156 195 195 182 177 180 192 196 195 201 199 205 212
249 249 249 250 251 246 244 245 244 244 242 232 223 217 209 204 203 202 194 189 200 204 203 210 213 201 190 192 191 188 174 163 180 197 192 184 188 195 198 198 201 207 210 76
253 254 251 251 251 248 244 243 242 238 233 224 211 204 207 208 206 203 196 187 193 196 203 209 199 178 176 181 185 185 184 182 180 186 188 182 196 207 199 198 201 209 212 161
252 251 251 255 255 248 243 238 238 233 222 207 203 208 210 211 210 204 193 192 200 207 205 190 170 174 169 158 156 178 182 177 171 167 171 154 185 202 213 214 215 225 228 221
248 247 250 251 243 239 237 232 226 224 215 202 203 205 206 208 209 204 198 203 211 214 198 177 180 179 169 158 163 174 169 168 164 158 165 182 195 203 215 224 232 235 239 239
245 246 246 243 236 233 233 225 216 214 206 198 201 203 207 210 204 199 198 209 204 185 188 174 180 174 163 150 166 167 159 165 169 171 179 189 200 211 228 233 235 248 257 257
247 241 239 237 230 231 234 223 210 203 198 195 197 195 199 205 203 203 206 213 187 160 181 190 183 154 145 151 164 160 162 167 172 170 179 189 198 212 227 253 259 265 268 269
256 239 232 227 223 223 225 221 213 204 202 205 202 201 209 215 209 208 209 191 179 170 184 189 156 148 156 170 167 165 168 172 177 183 191 199 208 219 228 241 258 265 268 271
262 245 238 229 208 209 224 226 224 209 202 205 204 200 201 205 209 211 210 166 166 171 187 158 159 162 170 182 177 177 178 179 189 202 208 213 214 224 233 242 254 260 264 269
257 250 234 220 215 219 222 211 203 196 190 186 188 193 202 206 206 196 185 178 164 170 178 169 169 171 182 179 184 193 193 188 201 218 218 218 221 232 242 251 258 259 262 264
253 249 243 236 235 226 210 208 213 207 195 189 186 182 179 170 167 169 163 165 167 169 176 175 172 179 189 184 188 193 194 192 205 218 223 224 228 234 241 250 258 257 257 259
244 243 236 232 227 217 209 214 215 213 208 196 184 175 165 156 152 153 154 151 152 158 163 166 168 173 176 184 190 193 199 204 209 208 213 222 231 240 243 247 254 258 259 255